NORTHERN QUEENS  -  Heat Advisory Heat Advisory     Rip Current Statement Rip Current Statement     Air Quality Alert Air Quality Alert        SOUTHERN QUEENS  -  Heat Advisory Heat Advisory     Rip Current Statement Rip Current Statement     Air Quality Alert Air Quality Alert        NORTHEAST SUFFOLK  -  Rip Current Statement Rip Current Statement        NORTHERN NASSAU  -  Rip Current Statement Rip Current Statement        NORTHWEST SUFFOLK  -  Rip Current Statement Rip Current Statement        SOUTHEAST SUFFOLK  -  Rip Current Statement Rip Current Statement        SOUTHERN NASSAU  -  Rip Current Statement Rip Current Statement        SOUTHWEST SUFFOLK  -  Rip Current Statement Rip Current Statement      

Active alerts

Northern Queens
  Details for Northern Queens Heat Advisory  +2 additional alerts
Southern Queens
  Details for Southern Queens Heat Advisory  +2 additional alerts
Northern Nassau
  Details for Northern Nassau Rip Current Statement
Southern Nassau
  Details for Southern Nassau Rip Current Statement
Northwest Suffolk
  Details for Northwest Suffolk Rip Current Statement
Southwest Suffolk
  Details for Southwest Suffolk Rip Current Statement
Northeast Suffolk
  Details for Northeast Suffolk Rip Current Statement
Southeast Suffolk
  Details for Southeast Suffolk Rip Current Statement


WXM80 ListenWXM80 Stop

You find our weather info also at:

UK Metoffice

WeatherCloud

Weather Underground

Northeastern Weather Network

AWEKAS

Citizen Weather Observer Program (CWOP)

HAMweather, WeatherForYou, PWS Weather


Weather Underground History page Text

Daily Summary for December 26, 2016 Units:  English    Metric   Both
« Previous Day
Next Day »
Daily Weekly Monthly Yearly Custom
  High: Low: Average:
Temperature: 51.5 °F 31.9 °F 39.7 °F
Dew Point: 50.7 °F 21.6 °F 34.4 °F
Humidity: 98 % 59 % 82 %
Wind Speed: 13.8 mph 0.0 mph 4.8 mph
Wind Gust: 29.0 mph - -
Wind:- - ESE
Pressure: 30.71 in 30.07 in -
Precipitation: 0.00 in    
Historical Graphs
 
 
Tabular Data for December 26, 2016
Time Temperature Dew Point Pressure Wind Wind Speed Wind Gust Humidity Rainfall Rate (Hourly)
00:04 35.0 °F 22.5 °F 30.68 in ENE 9.0 mph 13.0 mph 60 % 0.00 in
00:09 34.9 °F 22.4 °F 30.67 in NE 6.3 mph 29.0 mph 60 % 0.00 in
00:14 34.8 °F 22.4 °F 30.67 in ENE 7.0 mph 13.0 mph 60 % 0.00 in
00:19 34.8 °F 22.3 °F 30.67 in East 6.3 mph 29.0 mph 60 % 0.00 in
00:24 34.7 °F 22.2 °F 30.67 in ENE 7.0 mph 12.0 mph 60 % 0.00 in
00:29 34.6 °F 22.1 °F 30.67 in ENE 9.0 mph 15.0 mph 60 % 0.00 in
00:34 34.6 °F 22.1 °F 30.67 in East 7.4 mph 29.0 mph 60 % 0.00 in
00:39 34.5 °F 22.4 °F 30.67 in ENE 8.0 mph 12.0 mph 61 % 0.00 in
00:44 34.5 °F 21.6 °F 30.68 in ENE 8.0 mph 12.0 mph 59 % 0.00 in
00:49 34.4 °F 21.9 °F 30.67 in ENE 5.7 mph 29.0 mph 60 % 0.00 in
00:54 34.4 °F 22.3 °F 30.68 in ENE 8.0 mph 13.0 mph 61 % 0.00 in
00:59 34.4 °F 21.9 °F 30.68 in East 8.4 mph 29.0 mph 60 % 0.00 in
01:04 34.4 °F 22.3 °F 30.68 in ENE 7.6 mph 29.0 mph 61 % 0.00 in
01:09 34.4 °F 22.7 °F 30.68 in ENE 7.0 mph 29.0 mph 62 % 0.00 in
01:14 34.3 °F 22.6 °F 30.69 in ENE 8.4 mph 29.0 mph 62 % 0.00 in
01:20 34.3 °F 22.6 °F 30.69 in ENE 9.7 mph 29.0 mph 62 % 0.00 in
01:25 34.3 °F 23.4 °F 30.69 in ENE 6.5 mph 29.0 mph 64 % 0.00 in
01:30 34.3 °F 22.6 °F 30.69 in East 10.2 mph 29.0 mph 62 % 0.00 in
01:35 34.2 °F 22.9 °F 30.69 in ENE 11.3 mph 29.0 mph 63 % 0.00 in
01:40 34.1 °F 23.6 °F 30.69 in East 8.6 mph 29.0 mph 65 % 0.00 in
01:45 34.0 °F 23.5 °F 30.69 in ENE 8.6 mph 29.0 mph 65 % 0.00 in
01:50 33.9 °F 23.0 °F 30.69 in ENE 8.5 mph 29.0 mph 64 % 0.00 in
01:55 33.9 °F 23.0 °F 30.69 in East 9.1 mph 29.0 mph 64 % 0.00 in
02:00 33.8 °F 22.9 °F 30.69 in ENE 8.4 mph 29.0 mph 64 % 0.00 in
02:05 33.8 °F 23.3 °F 30.69 in ENE 6.4 mph 29.0 mph 65 % 0.00 in
02:10 33.7 °F 23.2 °F 30.70 in ENE 7.5 mph 29.0 mph 65 % 0.00 in
02:16 33.7 °F 23.2 °F 30.70 in ENE 7.5 mph 29.0 mph 65 % 0.00 in
02:21 33.7 °F 22.8 °F 30.70 in ENE 7.1 mph 29.0 mph 64 % 0.00 in
02:26 33.7 °F 23.2 °F 30.70 in ENE 6.8 mph 29.0 mph 65 % 0.00 in
02:31 33.7 °F 23.2 °F 30.70 in East 6.8 mph 29.0 mph 65 % 0.00 in
02:36 33.7 °F 23.2 °F 30.70 in East 7.1 mph 29.0 mph 65 % 0.00 in
02:41 33.7 °F 23.5 °F 30.70 in ENE 4.7 mph 29.0 mph 66 % 0.00 in
02:46 33.6 °F 23.1 °F 30.70 in ENE 4.6 mph 29.0 mph 65 % 0.00 in
02:51 33.6 °F 23.1 °F 30.70 in East 6.0 mph 29.0 mph 65 % 0.00 in
02:56 33.6 °F 23.1 °F 30.71 in ENE 5.4 mph 29.0 mph 65 % 0.00 in
03:01 33.5 °F 23.0 °F 30.70 in East 6.9 mph 29.0 mph 65 % 0.00 in
03:06 33.6 °F 23.4 °F 30.71 in ENE 6.8 mph 29.0 mph 66 % 0.00 in
03:11 33.7 °F 23.5 °F 30.70 in ENE 7.2 mph 29.0 mph 66 % 0.00 in
03:16 33.6 °F 23.8 °F 30.70 in ENE 6.5 mph 29.0 mph 67 % 0.00 in
03:21 33.6 °F 23.4 °F 30.70 in East 7.3 mph 29.0 mph 66 % 0.00 in
03:26 33.6 °F 23.8 °F 30.70 in ENE 7.0 mph 29.0 mph 67 % 0.00 in
03:32 33.6 °F 23.8 °F 30.70 in East 6.7 mph 29.0 mph 67 % 0.00 in
03:37 33.7 °F 23.5 °F 30.70 in East 6.8 mph 29.0 mph 66 % 0.00 in
03:42 33.6 °F 23.8 °F 30.70 in East 6.8 mph 29.0 mph 67 % 0.00 in
03:47 33.6 °F 24.2 °F 30.70 in ENE 7.7 mph 29.0 mph 68 % 0.00 in
03:52 33.5 °F 23.4 °F 30.70 in East 6.6 mph 29.0 mph 66 % 0.00 in
03:57 33.5 °F 23.4 °F 30.71 in East 8.4 mph 29.0 mph 66 % 0.00 in
04:02 33.4 °F 23.6 °F 30.71 in East 4.8 mph 29.0 mph 67 % 0.00 in
04:07 33.3 °F 23.5 °F 30.71 in East 7.7 mph 29.0 mph 67 % 0.00 in
04:12 33.3 °F 23.5 °F 30.70 in East 7.2 mph 29.0 mph 67 % 0.00 in
04:17 33.3 °F 23.5 °F 30.70 in East 8.6 mph 29.0 mph 67 % 0.00 in
04:22 33.3 °F 23.5 °F 30.70 in East 8.7 mph 29.0 mph 67 % 0.00 in
04:27 33.4 °F 23.6 °F 30.70 in East 6.3 mph 29.0 mph 67 % 0.00 in
04:32 33.4 °F 23.6 °F 30.70 in ENE 7.6 mph 29.0 mph 67 % 0.00 in
04:37 33.4 °F 23.6 °F 30.70 in East 7.3 mph 29.0 mph 67 % 0.00 in
04:42 33.4 °F 23.6 °F 30.70 in East 6.0 mph 29.0 mph 67 % 0.00 in
04:47 33.3 °F 23.5 °F 30.70 in East 9.4 mph 29.0 mph 67 % 0.00 in
04:53 33.4 °F 23.6 °F 30.70 in East 8.4 mph 29.0 mph 67 % 0.00 in
04:58 33.4 °F 23.6 °F 30.70 in East 7.7 mph 29.0 mph 67 % 0.00 in
05:03 33.3 °F 23.9 °F 30.70 in East 7.2 mph 29.0 mph 68 % 0.00 in
05:08 33.3 °F 23.5 °F 30.70 in ENE 6.1 mph 29.0 mph 67 % 0.00 in
05:13 33.3 °F 23.9 °F 30.69 in ENE 6.3 mph 29.0 mph 68 % 0.00 in
05:18 33.3 °F 23.9 °F 30.69 in East 7.6 mph 29.0 mph 68 % 0.00 in
05:23 33.2 °F 24.1 °F 30.70 in ESE 6.8 mph 29.0 mph 69 % 0.00 in
05:28 33.2 °F 24.1 °F 30.70 in East 6.4 mph 29.0 mph 69 % 0.00 in
05:33 33.3 °F 24.6 °F 30.70 in East 6.6 mph 29.0 mph 70 % 0.00 in
05:38 33.2 °F 24.8 °F 30.70 in East 7.5 mph 29.0 mph 71 % 0.00 in
05:43 33.2 °F 25.1 °F 30.70 in East 5.5 mph 29.0 mph 72 % 0.00 in
05:48 33.2 °F 25.1 °F 30.70 in ESE 6.0 mph 29.0 mph 72 % 0.00 in
05:53 33.2 °F 25.1 °F 30.70 in East 3.5 mph 29.0 mph 72 % 0.00 in
05:58 33.2 °F 25.5 °F 30.70 in East 2.3 mph 29.0 mph 73 % 0.00 in
06:03 33.2 °F 25.1 °F 30.71 in East 0.3 mph 29.0 mph 72 % 0.00 in
06:08 33.1 °F 25.1 °F 30.71 in East 0.6 mph 29.0 mph 72 % 0.00 in
06:14 33.0 °F 25.0 °F 30.71 in East 0.7 mph 29.0 mph 72 % 0.00 in
06:19 32.8 °F 24.8 °F 30.71 in East 0.7 mph 29.0 mph 72 % 0.00 in
06:24 32.6 °F 24.6 °F 30.71 in East 1.9 mph 29.0 mph 72 % 0.00 in
06:29 32.4 °F 24.4 °F 30.71 in East 1.1 mph 29.0 mph 72 % 0.00 in
06:34 32.2 °F 24.2 °F 30.71 in East 2.0 mph 29.0 mph 72 % 0.00 in
06:39 32.0 °F 24.3 °F 30.71 in East 2.2 mph 29.0 mph 73 % 0.00 in
06:44 31.9 °F 24.9 °F 30.71 in East 3.2 mph 29.0 mph 75 % 0.00 in
06:49 31.9 °F 25.2 °F 30.71 in East 3.9 mph 29.0 mph 76 % 0.00 in
06:54 32.0 °F 25.6 °F 30.71 in East 5.5 mph 29.0 mph 77 % 0.00 in
06:59 32.3 °F 25.9 °F 30.71 in East 4.7 mph 29.0 mph 77 % 0.00 in
07:04 32.5 °F 26.1 °F 30.71 in East 5.2 mph 29.0 mph 77 % 0.00 in
07:09 32.7 °F 26.3 °F 30.71 in East 6.5 mph 29.0 mph 77 % 0.00 in
07:14 32.8 °F 26.4 °F 30.71 in East 7.0 mph 10.0 mph 77 % 0.00 in
07:19 33.0 °F 26.6 °F 30.71 in East 5.5 mph 29.0 mph 77 % 0.00 in
07:24 33.1 °F 27.0 °F 30.70 in East 6.0 mph 10.0 mph 78 % 0.00 in
07:29 33.2 °F 27.1 °F 30.71 in East 7.0 mph 9.0 mph 78 % 0.00 in
07:34 33.3 °F 27.2 °F 30.71 in East 7.0 mph 10.0 mph 78 % 0.00 in
07:39 33.5 °F 27.4 °F 30.71 in East 8.0 mph 29.0 mph 78 % 0.00 in
07:44 33.6 °F 27.5 °F 30.71 in East 6.0 mph 10.0 mph 78 % 0.00 in
07:49 33.8 °F 28.0 °F 30.71 in East 7.5 mph 29.0 mph 79 % 0.00 in
07:54 34.0 °F 27.9 °F 30.71 in East 7.0 mph 13.0 mph 78 % 0.00 in
07:59 34.2 °F 28.4 °F 30.70 in East 8.3 mph 29.0 mph 79 % 0.00 in
08:04 34.4 °F 28.6 °F 30.70 in East 8.5 mph 29.0 mph 79 % 0.00 in
08:09 34.7 °F 28.9 °F 30.70 in East 6.5 mph 29.0 mph 79 % 0.00 in
08:15 34.9 °F 29.0 °F 30.71 in ENE 7.0 mph 29.0 mph 79 % 0.00 in
08:20 35.1 °F 29.2 °F 30.70 in East 7.7 mph 29.0 mph 79 % 0.00 in
08:25 35.3 °F 29.4 °F 30.70 in ENE 6.2 mph 29.0 mph 79 % 0.00 in
08:30 35.5 °F 29.6 °F 30.70 in East 6.9 mph 29.0 mph 79 % 0.00 in
08:35 35.7 °F 29.8 °F 30.70 in ENE 8.6 mph 29.0 mph 79 % 0.00 in
08:40 35.8 °F 29.9 °F 30.71 in ENE 7.1 mph 29.0 mph 79 % 0.00 in
08:45 36.0 °F 30.1 °F 30.70 in East 8.1 mph 29.0 mph 79 % 0.00 in
08:50 36.3 °F 30.4 °F 30.70 in ENE 8.6 mph 29.0 mph 79 % 0.00 in
08:55 36.4 °F 30.5 °F 30.69 in NE 7.6 mph 29.0 mph 79 % 0.00 in
09:00 36.4 °F 30.5 °F 30.70 in ENE 7.2 mph 29.0 mph 79 % 0.00 in
09:05 36.4 °F 30.8 °F 30.70 in East 9.2 mph 29.0 mph 80 % 0.00 in
09:10 36.2 °F 30.6 °F 30.71 in NE 8.8 mph 29.0 mph 80 % 0.00 in
09:15 35.9 °F 30.0 °F 30.70 in ENE 8.8 mph 29.0 mph 79 % 0.00 in
09:20 35.6 °F 29.7 °F 30.71 in ENE 7.1 mph 29.0 mph 79 % 0.00 in
09:25 35.3 °F 29.7 °F 30.71 in NE 8.8 mph 29.0 mph 80 % 0.00 in
09:30 35.3 °F 29.7 °F 30.70 in East 13.8 mph 29.0 mph 80 % 0.00 in
09:35 35.2 °F 29.3 °F 30.70 in ENE 9.3 mph 29.0 mph 79 % 0.00 in
09:40 35.1 °F 29.9 °F 30.69 in ENE 10.6 mph 29.0 mph 81 % 0.00 in
09:45 35.3 °F 30.7 °F 30.69 in ENE 8.6 mph 29.0 mph 83 % 0.00 in
09:51 35.9 °F 30.9 °F 30.69 in ENE 7.9 mph 29.0 mph 82 % 0.00 in
09:56 36.4 °F 31.4 °F 30.69 in East 7.7 mph 29.0 mph 82 % 0.00 in
10:01 36.6 °F 31.0 °F 30.69 in ENE 7.7 mph 29.0 mph 80 % 0.00 in
10:06 36.6 °F 31.0 °F 30.69 in ENE 7.4 mph 29.0 mph 80 % 0.00 in
10:11 36.5 °F 30.9 °F 30.70 in ENE 7.4 mph 29.0 mph 80 % 0.00 in
10:16 36.5 °F 31.2 °F 30.69 in ENE 9.9 mph 29.0 mph 81 % 0.00 in
10:21 36.5 °F 31.2 °F 30.70 in East 9.6 mph 29.0 mph 81 % 0.00 in
10:26 36.6 °F 31.6 °F 30.70 in East 5.7 mph 29.0 mph 82 % 0.00 in
10:31 36.7 °F 31.7 °F 30.69 in ENE 7.8 mph 29.0 mph 82 % 0.00 in
10:36 36.9 °F 31.9 °F 30.68 in NE 7.3 mph 29.0 mph 82 % 0.00 in
10:41 37.0 °F 32.0 °F 30.68 in East 10.1 mph 29.0 mph 82 % 0.00 in
10:46 37.1 °F 32.1 °F 30.67 in East 5.8 mph 29.0 mph 82 % 0.00 in
10:51 37.4 °F 32.7 °F 30.67 in ENE 7.7 mph 29.0 mph 83 % 0.00 in
10:56 37.5 °F 32.5 °F 30.67 in ENE 6.4 mph 29.0 mph 82 % 0.00 in
11:01 37.7 °F 32.7 °F 30.67 in East 4.6 mph 29.0 mph 82 % 0.00 in
11:06 37.9 °F 32.9 °F 30.66 in ENE 4.9 mph 29.0 mph 82 % 0.00 in
11:11 38.1 °F 32.8 °F 30.65 in East 5.8 mph 29.0 mph 81 % 0.00 in
11:16 38.2 °F 33.2 °F 30.65 in ENE 5.5 mph 29.0 mph 82 % 0.00 in
11:22 38.3 °F 33.0 °F 30.65 in ENE 3.6 mph 29.0 mph 81 % 0.00 in
11:27 38.4 °F 33.4 °F 30.64 in ENE 6.7 mph 29.0 mph 82 % 0.00 in
11:32 38.7 °F 33.7 °F 30.63 in East 5.2 mph 29.0 mph 82 % 0.00 in
11:37 38.9 °F 33.9 °F 30.62 in ENE 5.5 mph 29.0 mph 82 % 0.00 in
11:42 39.2 °F 34.2 °F 30.61 in ENE 5.9 mph 29.0 mph 82 % 0.00 in
11:47 39.5 °F 34.2 °F 30.61 in East 6.1 mph 29.0 mph 81 % 0.00 in
11:52 39.5 °F 34.2 °F 30.61 in ENE 6.6 mph 29.0 mph 81 % 0.00 in
11:57 39.4 °F 34.1 °F 30.61 in East 6.1 mph 29.0 mph 81 % 0.00 in
12:02 39.4 °F 34.1 °F 30.60 in ENE 6.5 mph 29.0 mph 81 % 0.00 in
12:07 39.4 °F 34.4 °F 30.60 in ENE 5.5 mph 29.0 mph 82 % 0.00 in
12:12 39.4 °F 34.4 °F 30.59 in ENE 6.5 mph 29.0 mph 82 % 0.00 in
12:17 39.4 °F 34.4 °F 30.59 in ENE 6.2 mph 29.0 mph 82 % 0.00 in
12:22 39.4 °F 34.4 °F 30.58 in ENE 5.3 mph 29.0 mph 82 % 0.00 in
12:27 39.3 °F 34.3 °F 30.58 in East 5.5 mph 29.0 mph 82 % 0.00 in
12:32 39.3 °F 34.3 °F 30.58 in ENE 4.9 mph 29.0 mph 82 % 0.00 in
12:37 39.3 °F 34.3 °F 30.57 in East 4.1 mph 29.0 mph 82 % 0.00 in
12:42 39.3 °F 34.6 °F 30.57 in East 5.2 mph 29.0 mph 83 % 0.00 in
12:48 39.4 °F 34.7 °F 30.56 in East 5.0 mph 29.0 mph 83 % 0.00 in
12:53 39.5 °F 34.8 °F 30.56 in East 5.9 mph 29.0 mph 83 % 0.00 in
12:58 39.5 °F 34.8 °F 30.56 in East 6.0 mph 29.0 mph 83 % 0.00 in
13:03 39.6 °F 34.9 °F 30.55 in East 5.1 mph 29.0 mph 83 % 0.00 in
13:08 39.7 °F 35.0 °F 30.55 in East 5.2 mph 29.0 mph 83 % 0.00 in
13:13 39.8 °F 35.1 °F 30.55 in East 3.9 mph 29.0 mph 83 % 0.00 in
13:18 39.8 °F 35.1 °F 30.55 in ENE 4.3 mph 29.0 mph 83 % 0.00 in
13:23 39.9 °F 35.2 °F 30.55 in East 2.1 mph 29.0 mph 83 % 0.00 in
13:28 39.9 °F 35.5 °F 30.54 in ENE 1.8 mph 29.0 mph 84 % 0.00 in
13:33 40.0 °F 35.3 °F 30.54 in ENE 2.1 mph 29.0 mph 83 % 0.00 in
13:38 40.1 °F 35.4 °F 30.54 in ENE 1.7 mph 29.0 mph 83 % 0.00 in
13:39 40.2 °F 35.4 °F 30.54 in ENE 1.0 mph 4.0 mph 83 % 0.00 in
13:44 40.2 °F 35.4 °F 30.54 in ENE 1.1 mph 29.0 mph 83 % 0.00 in
13:49 40.3 °F 35.5 °F 30.53 in ENE 1.0 mph 5.0 mph 83 % 0.00 in
13:54 40.4 °F 35.6 °F 30.53 in ENE 1.0 mph 6.0 mph 83 % 0.00 in
13:59 40.4 °F 35.9 °F 30.53 in NE 1.4 mph 29.0 mph 84 % 0.00 in
14:04 40.5 °F 36.0 °F 30.53 in NE 0.4 mph 29.0 mph 84 % 0.00 in
14:09 40.6 °F 36.1 °F 30.53 in SE 3.2 mph 29.0 mph 84 % 0.00 in
14:14 40.8 °F 36.0 °F 30.53 in SE 4.2 mph 29.0 mph 83 % 0.00 in
14:25 41.9 °F 36.2 °F 30.52 in SSE 3.8 mph 29.0 mph 80 % 0.00 in
14:30 42.2 °F 36.5 °F 30.52 in South 2.6 mph 29.0 mph 80 % 0.00 in
14:35 42.4 °F 36.7 °F 30.51 in SSE 1.0 mph 29.0 mph 80 % 0.00 in
14:40 42.5 °F 36.4 °F 30.51 in SSE 1.8 mph 29.0 mph 79 % 0.00 in
14:45 42.7 °F 36.6 °F 30.51 in South 0.5 mph 29.0 mph 79 % 0.00 in
14:50 42.9 °F 36.8 °F 30.50 in SSE 3.9 mph 29.0 mph 79 % 0.00 in
14:55 43.1 °F 37.3 °F 30.50 in ESE 4.2 mph 29.0 mph 80 % 0.00 in
15:00 43.2 °F 37.8 °F 30.49 in SSE 4.2 mph 29.0 mph 81 % 0.00 in
15:05 43.2 °F 38.1 °F 30.49 in SSE 1.4 mph 29.0 mph 82 % 0.00 in
15:10 43.1 °F 38.6 °F 30.49 in SSE 3.6 mph 29.0 mph 84 % 0.00 in
15:15 43.0 °F 38.5 °F 30.48 in SE 0.2 mph 29.0 mph 84 % 0.00 in
15:20 42.9 °F 38.7 °F 30.48 in Calm   29.0 mph 85 % 0.00 in
15:26 42.9 °F 38.7 °F 30.48 in Calm   29.0 mph 85 % 0.00 in
15:31 42.8 °F 38.9 °F 30.48 in Calm   29.0 mph 86 % 0.00 in
15:36 42.7 °F 38.8 °F 30.47 in SE 0.2 mph 29.0 mph 86 % 0.00 in
15:41 42.6 °F 39.0 °F 30.46 in SE 0.2 mph 29.0 mph 87 % 0.00 in
15:46 42.5 °F 38.9 °F 30.46 in SE 0.1 mph 29.0 mph 87 % 0.00 in
15:51 42.4 °F 39.1 °F 30.45 in SE 0.7 mph 29.0 mph 88 % 0.00 in
15:56 42.3 °F 39.0 °F 30.44 in SE 0.4 mph 29.0 mph 88 % 0.00 in
16:01 42.1 °F 39.1 °F 30.44 in Calm   29.0 mph 89 % 0.00 in
16:06 42.0 °F 39.0 °F 30.43 in Calm   29.0 mph 89 % 0.00 in
16:11 41.9 °F 38.9 °F 30.43 in Calm   29.0 mph 89 % 0.00 in
16:16 41.8 °F 39.1 °F 30.42 in SE 0.9 mph 29.0 mph 90 % 0.00 in
16:21 41.7 °F 39.0 °F 30.42 in Calm   29.0 mph 90 % 0.00 in
16:26 41.7 °F 39.0 °F 30.42 in Calm   29.0 mph 90 % 0.00 in
16:31 41.6 °F 39.2 °F 30.42 in Calm   29.0 mph 91 % 0.00 in
16:36 41.6 °F 39.2 °F 30.41 in Calm   29.0 mph 91 % 0.00 in
16:41 41.6 °F 39.2 °F 30.41 in Calm   29.0 mph 91 % 0.00 in
16:46 41.6 °F 39.2 °F 30.40 in Calm   29.0 mph 91 % 0.00 in
16:52 41.7 °F 39.3 °F 30.39 in Calm   29.0 mph 91 % 0.00 in
16:57 41.6 °F 39.2 °F 30.39 in SE 0.2 mph 29.0 mph 91 % 0.00 in
17:02 41.7 °F 39.5 °F 30.39 in SSE 0.1 mph 29.0 mph 92 % 0.00 in
17:07 41.8 °F 39.6 °F 30.39 in SSW 0.4 mph 29.0 mph 92 % 0.00 in
17:12 41.9 °F 39.7 °F 30.39 in South 0.4 mph 29.0 mph 92 % 0.00 in
17:17 42.2 °F 40.3 °F 30.38 in South 1.0 mph 29.0 mph 93 % 0.00 in
17:22 42.4 °F 40.5 °F 30.38 in SW 0.7 mph 29.0 mph 93 % 0.00 in
17:27 42.6 °F 41.0 °F 30.37 in SSE 0.5 mph 29.0 mph 94 % 0.00 in
17:32 43.1 °F 41.5 °F 30.37 in SSW 0.7 mph 29.0 mph 94 % 0.00 in
17:37 43.5 °F 42.2 °F 30.37 in South 1.5 mph 29.0 mph 95 % 0.00 in
17:42 43.9 °F 42.6 °F 30.37 in SSE 0.9 mph 29.0 mph 95 % 0.00 in
17:47 44.3 °F 43.0 °F 30.37 in SSE 4.4 mph 29.0 mph 95 % 0.00 in
17:53 44.6 °F 43.3 °F 30.36 in South 4.8 mph 29.0 mph 95 % 0.00 in
17:58 44.9 °F 43.6 °F 30.36 in South 1.3 mph 29.0 mph 95 % 0.00 in
18:03 45.0 °F 43.7 °F 30.35 in South 1.2 mph 29.0 mph 95 % 0.00 in
18:08 45.2 °F 43.9 °F 30.35 in SSW 3.6 mph 29.0 mph 95 % 0.00 in
18:13 45.2 °F 43.9 °F 30.35 in SE 3.4 mph 29.0 mph 95 % 0.00 in
18:18 45.4 °F 44.3 °F 30.35 in SSE 2.2 mph 29.0 mph 96 % 0.00 in
18:23 45.6 °F 44.5 °F 30.34 in South 2.3 mph 29.0 mph 96 % 0.00 in
18:28 45.7 °F 44.6 °F 30.35 in SSE 1.5 mph 29.0 mph 96 % 0.00 in
18:33 45.8 °F 44.4 °F 30.34 in SSW 2.2 mph 29.0 mph 95 % 0.00 in
18:38 45.8 °F 44.7 °F 30.34 in WSW 1.9 mph 29.0 mph 96 % 0.00 in
18:43 45.9 °F 44.8 °F 30.33 in SW 2.7 mph 29.0 mph 96 % 0.00 in
18:48 46.0 °F 44.9 °F 30.33 in SSW 2.4 mph 29.0 mph 96 % 0.00 in
18:53 46.0 °F 44.9 °F 30.33 in South 2.5 mph 29.0 mph 96 % 0.00 in
18:58 46.1 °F 45.0 °F 30.33 in SSW 3.3 mph 29.0 mph 96 % 0.00 in
19:03 46.2 °F 45.1 °F 30.32 in SSW 2.9 mph 29.0 mph 96 % 0.00 in
19:08 46.3 °F 45.2 °F 30.32 in WSW 2.0 mph 29.0 mph 96 % 0.00 in
19:13 46.4 °F 45.3 °F 30.31 in SSW 2.1 mph 29.0 mph 96 % 0.00 in
19:18 46.5 °F 45.4 °F 30.30 in SSE 4.1 mph 29.0 mph 96 % 0.00 in
19:24 46.6 °F 45.5 °F 30.30 in SSW 4.0 mph 29.0 mph 96 % 0.00 in
19:29 46.7 °F 45.6 °F 30.29 in South 3.3 mph 29.0 mph 96 % 0.00 in
19:34 46.7 °F 45.6 °F 30.30 in SSW 2.8 mph 29.0 mph 96 % 0.00 in
19:39 46.8 °F 45.7 °F 30.29 in SSW 3.0 mph 29.0 mph 96 % 0.00 in
19:44 46.8 °F 45.7 °F 30.29 in SSW 2.2 mph 29.0 mph 96 % 0.00 in
19:49 46.9 °F 45.8 °F 30.28 in SSE 2.9 mph 29.0 mph 96 % 0.00 in
19:54 47.0 °F 45.9 °F 30.28 in South 5.6 mph 29.0 mph 96 % 0.00 in
19:59 47.1 °F 46.0 °F 30.27 in South 4.7 mph 29.0 mph 96 % 0.00 in
20:04 47.1 °F 46.0 °F 30.27 in South 5.3 mph 29.0 mph 96 % 0.00 in
20:09 47.2 °F 46.1 °F 30.27 in South 4.1 mph 29.0 mph 96 % 0.00 in
20:14 47.3 °F 46.2 °F 30.26 in South 4.2 mph 29.0 mph 96 % 0.00 in
20:19 47.4 °F 46.3 °F 30.25 in South 2.0 mph 8.0 mph 96 % 0.00 in
20:24 47.4 °F 46.3 °F 30.25 in SSW 2.0 mph 6.0 mph 96 % 0.00 in
20:29 47.4 °F 46.3 °F 30.25 in South 3.0 mph 6.0 mph 96 % 0.00 in
20:34 47.5 °F 46.4 °F 30.24 in South 3.0 mph 7.0 mph 96 % 0.00 in
20:39 47.6 °F 46.8 °F 30.23 in South 4.1 mph 29.0 mph 97 % 0.00 in
20:44 47.7 °F 46.9 °F 30.23 in SSW 3.0 mph 8.0 mph 97 % 0.00 in
20:49 47.8 °F 47.0 °F 30.22 in South 3.0 mph 10.0 mph 97 % 0.00 in
20:54 47.9 °F 47.1 °F 30.21 in South 2.0 mph 8.0 mph 97 % 0.00 in
20:59 48.0 °F 47.2 °F 30.21 in South 3.6 mph 29.0 mph 97 % 0.00 in
21:04 48.1 °F 47.3 °F 30.20 in South 2.0 mph 9.0 mph 97 % 0.00 in
21:09 48.1 °F 47.3 °F 30.20 in South 2.0 mph 8.0 mph 97 % 0.00 in
21:14 48.2 °F 47.4 °F 30.19 in SSW 2.0 mph 6.0 mph 97 % 0.00 in
21:19 48.3 °F 47.5 °F 30.19 in SSW 1.8 mph 29.0 mph 97 % 0.00 in
21:24 48.4 °F 47.6 °F 30.18 in SSW 3.0 mph 29.0 mph 97 % 0.00 in
21:29 48.5 °F 47.7 °F 30.18 in South 3.0 mph 7.0 mph 97 % 0.00 in
21:34 48.7 °F 47.9 °F 30.18 in South 2.0 mph 7.0 mph 97 % 0.00 in
21:39 48.8 °F 48.0 °F 30.17 in South 2.0 mph 8.0 mph 97 % 0.00 in
21:44 49.1 °F 48.3 °F 30.16 in South 6.0 mph 9.0 mph 97 % 0.00 in
21:49 49.4 °F 48.6 °F 30.17 in SW 5.8 mph 29.0 mph 97 % 0.00 in
21:54 49.6 °F 48.8 °F 30.16 in SSW 2.0 mph 8.0 mph 97 % 0.00 in
21:59 49.7 °F 48.9 °F 30.15 in SW 4.1 mph 29.0 mph 97 % 0.00 in
22:04 49.8 °F 49.0 °F 30.16 in SSW 4.7 mph 29.0 mph 97 % 0.00 in
22:09 49.9 °F 49.1 °F 30.16 in SSW 6.2 mph 29.0 mph 97 % 0.00 in
22:14 49.9 °F 49.1 °F 30.15 in SSW 3.4 mph 29.0 mph 97 % 0.00 in
22:19 49.9 °F 49.1 °F 30.14 in SSW 4.2 mph 29.0 mph 97 % 0.00 in
22:24 50.0 °F 49.2 °F 30.14 in South 4.7 mph 29.0 mph 97 % 0.00 in
22:29 50.0 °F 49.2 °F 30.14 in SW 2.8 mph 29.0 mph 97 % 0.00 in
22:35 50.1 °F 49.3 °F 30.13 in SW 3.5 mph 29.0 mph 97 % 0.00 in
22:39 50.2 °F 49.4 °F 30.13 in South 4.9 mph 29.0 mph 97 % 0.00 in
22:45 50.4 °F 49.6 °F 30.12 in SW 2.6 mph 29.0 mph 97 % 0.00 in
22:50 50.5 °F 49.7 °F 30.11 in South 4.2 mph 29.0 mph 97 % 0.00 in
22:55 50.8 °F 50.0 °F 30.11 in SSW 3.9 mph 29.0 mph 97 % 0.00 in
23:00 51.1 °F 50.6 °F 30.11 in SSW 6.3 mph 29.0 mph 98 % 0.00 in
23:05 51.4 °F 50.6 °F 30.11 in SW 3.0 mph 29.0 mph 97 % 0.00 in
23:10 51.4 °F 50.6 °F 30.10 in SW 3.0 mph 29.0 mph 97 % 0.00 in
23:15 51.5 °F 50.7 °F 30.10 in South 3.5 mph 29.0 mph 97 % 0.00 in
23:20 51.5 °F 50.7 °F 30.09 in SSW 3.4 mph 29.0 mph 97 % 0.00 in
23:25 51.5 °F 50.7 °F 30.09 in South 6.5 mph 29.0 mph 97 % 0.00 in
23:30 51.4 °F 50.6 °F 30.08 in SW 6.3 mph 29.0 mph 97 % 0.00 in
23:35 51.4 °F 50.6 °F 30.08 in South 4.0 mph 29.0 mph 97 % 0.00 in
23:40 51.3 °F 50.5 °F 30.08 in WSW 5.9 mph 29.0 mph 97 % 0.00 in
23:45 51.3 °F 50.5 °F 30.07 in South 6.7 mph 29.0 mph 97 % 0.00 in
23:50 51.2 °F 50.4 °F 30.07 in SSW 7.3 mph 29.0 mph 97 % 0.00 in
23:55 51.2 °F 50.4 °F 30.07 in SSW 7.5 mph 29.0 mph 97 % 0.00 in
Crab Meadow Weather
Compliments of Weather Underground - 3 mb

Script developed by  Jim McMurry - jmcmurry@mwt.net Adapted for the template by  Wim van der Kuil - Leuven-Template.eu

Wind Chill: Everyone has noticed that in winter it seems colder when the wind is blowing. Mothers recognize this and tell their children to wear more clothes. The question the children ask is how much more clothes. Mothers answer very precisely because Mothers know everything. For the rest of us, wind chill calculations are the basis for determining the effect of wind on body heat loss. The wind chill equivalent temperature equation is: Wind chill temperature = 35.74 + 0.6215T - 35.75V (**0.16) + 0.4275TV(**0.16) where T is the air temperature in Fahrenheit and V is the wind speed in MPH.